Regional Weather Roundup
Issued by NWS

Home | Current Version | Previous Version | Text Only | Print | Product List | Glossary On
Versions: 1 2 3 4 5 6 7 8 9 10 11 12 13 14 15 16 17 18 19 20 21 22 23 24 25 26 27 28 29 30 31 32 33 34 35 36 37 38 39 40 41 42 43 44 45 46 47 48 49 50
000
ASUS43 KLSX 160907
RWRMO

WEATHER SUMMARY FOR MISSOURI
NATIONAL WEATHER SERVICE SPRINGFIELD MO
400 AM CDT TUE SEP 16 2014

NOTE: "FAIR" INDICATES FEW OR NO CLOUDS BELOW 12,000 FEET WITH NO
       SIGNIFICANT WEATHER AND/OR OBSTRUCTIONS TO VISIBILITY.
       CURRENT SKY AND/OR WEATHER CONDITIONS ARE NOT AVAILABLE FOR
       CHILLICOTHE AND FARMINGTON.

MOZ001>031-035>038-043-044-053-054-161000-
...NORTHERN AND WESTERN MISSOURI...

CITY           SKY/WX    TMP DP  RH WIND       PRES   REMARKS
KANSAS CTY INT PTCLDY    48  47  96 NE6       30.25F
KANSAS C DTWN  CLEAR     51  48  89 CALM      30.25F
LEE`S SUMMIT   MOCLDY    50  48  93 N6        30.25S
ST JOSEPH      CLEAR     46  45  96 CALM      30.26F
CHILLICOTHE      N/A     48  46  93 CALM      30.27S
KIRKSVILLE     CLEAR     45  43  93 N7        30.25S

$$
MOZ066>068-077>081-088>096-101>105-161000-
...SOUTHWEST MISSOURI...

CITY           SKY/WX    TMP DP  RH WIND       PRES   REMARKS
SPRINGFIELD    CLOUDY    65  58  78 NE7       30.18S
JOPLIN         CLOUDY    62  59  90 N9        30.19S

$$
MOZ032>034-039>042-045>050-055>058-069>072-161000-
...CENTRAL MISSOURI...

CITY           SKY/WX    TMP DP  RH WIND       PRES   REMARKS
COLUMBIA       CLOUDY    57  53  86 NE10      30.22S
JEFFERSON CITY CLOUDY    60  54  80 NE7       30.22R
ROLLA          CLOUDY    59  57  93 N5        30.18S FOG
SEDALIA        CLOUDY    57  53  86 N7        30.23S
WHITEMAN AFB   CLOUDY    55  51  88 NE7       30.23R
OSAGE BEACH    CLOUDY    59  55  88 N6        30.20S

$$
MOZ051-052-059>065-161000-
...EAST CENTRAL MISSOURI...

CITY           SKY/WX    TMP DP  RH WIND       PRES   REMARKS
ST LOUIS INTL  MOCLDY    59  54  83 NE7       30.20S
SPIRIT OF STL  CLOUDY    59  55  87 NE5       30.19R
ST CHARLES     CLOUDY    58  56  93 N8        30.20S FOG

$$
MOZ072>076-082>087-097>100-106>115-161000-
...SOUTH CENTRAL AND SOUTHEAST MISSOURI...

CITY           SKY/WX    TMP DP  RH WIND       PRES   REMARKS
CAPE GIRARDEAU CLOUDY    64  59  83 N13       30.14R
FARMINGTON     CLOUDY    61  57  88 N3        30.20R
POPLAR BLUFF   CLOUDY    66  60  81 N7        30.12S
WEST PLAINS    CLOUDY    64  60  87 NE8       30.18R

$$


USA.gov is the U.S. government's official web portal to all federal, state and local government web resources and services.